Time,TemperatureF,DewpointF,PressureIn,WindDirection,WindDirectionDegrees,WindSpeedMPH,WindSpeedGustMPH,Humidity,HourlyPrecipIn,Conditions,Clouds,dailyrainin,SolarRadiationWatts/m^2,SoftwareType,DateUTC
2013-10-27 00:01:00,50.4,40.0,29.87,WSW,239,8.0,13.0,67,0.00,,,0.00,0,weatherlink.com 1.10,2013-10-27 04:01:00,
2013-10-27 00:16:00,50.3,40.0,29.86,SW,232,4.0,13.0,67,0.00,,,0.00,0,weatherlink.com 1.10,2013-10-27 04:16:00,
2013-10-27 00:31:00,50.2,40.0,29.86,WSW,248,6.0,14.0,67,0.00,,,0.00,0,weatherlink.com 1.10,2013-10-27 04:31:00,
2013-10-27 00:46:00,50.2,39.0,29.86,West,261,6.0,14.0,66,0.00,,,0.00,0,weatherlink.com 1.10,2013-10-27 04:46:00,
2013-10-27 01:01:00,50.1,38.0,29.86,WSW,252,12.0,20.0,64,0.00,,,0.00,0,weatherlink.com 1.10,2013-10-27 05:01:00,
2013-10-27 01:16:00,50.3,37.0,29.86,West,261,8.0,22.0,60,0.00,,,0.00,0,weatherlink.com 1.10,2013-10-27 05:16:00,
2013-10-27 01:31:00,50.2,37.0,29.86,WSW,244,11.0,17.0,60,0.00,,,0.00,0,weatherlink.com 1.10,2013-10-27 05:31:00,
2013-10-27 01:46:00,49.9,36.0,29.86,West,272,12.0,16.0,60,0.00,,,0.00,0,weatherlink.com 1.10,2013-10-27 05:46:00,
2013-10-27 02:02:00,49.6,36.0,29.84,SW,232,15.0,15.0,60,0.00,,,0.00,0,weatherlink.com 1.10,2013-10-27 06:02:00,
2013-10-27 02:17:00,49.5,36.0,29.84,WSW,252,3.0,14.0,60,0.00,,,0.00,0,weatherlink.com 1.10,2013-10-27 06:17:00,
2013-10-27 02:32:00,49.4,36.0,29.84,WSW,247,7.0,12.0,60,0.00,,,0.00,0,weatherlink.com 1.10,2013-10-27 06:32:00,
2013-10-27 02:47:00,49.5,36.0,29.84,WSW,254,5.0,11.0,59,0.00,,,0.00,0,weatherlink.com 1.10,2013-10-27 06:47:00,
2013-10-27 03:02:00,49.4,37.0,29.84,WNW,284,19.0,25.0,62,0.00,,,0.00,0,weatherlink.com 1.10,2013-10-27 07:02:00,
2013-10-27 03:17:00,48.5,38.0,29.83,West,263,2.0,18.0,66,0.00,,,0.00,0,weatherlink.com 1.10,2013-10-27 07:17:00,
2013-10-27 03:32:00,48.0,39.0,29.83,West,265,9.0,16.0,70,0.00,,,0.00,0,weatherlink.com 1.10,2013-10-27 07:32:00,
2013-10-27 03:47:00,47.2,39.0,29.82,WNW,283,10.0,17.0,73,0.00,,,0.00,0,weatherlink.com 1.10,2013-10-27 07:47:00,
2013-10-27 04:02:00,46.7,39.0,29.82,West,269,3.0,13.0,75,0.00,,,0.00,0,weatherlink.com 1.10,2013-10-27 08:02:00,
2013-10-27 04:17:00,46.3,39.0,29.82,West,272,0.0,7.0,76,0.00,,,0.00,0,weatherlink.com 1.10,2013-10-27 08:17:00,
2013-10-27 04:32:00,46.1,40.0,29.81,West,272,4.0,5.0,78,0.00,,,0.00,0,weatherlink.com 1.10,2013-10-27 08:32:00,
2013-10-27 04:47:00,45.9,40.0,29.82,West,269,5.0,7.0,79,0.01,,,0.01,0,weatherlink.com 1.10,2013-10-27 08:47:00,
2013-10-27 05:02:00,46.0,40.0,29.82,WSW,238,4.0,10.0,80,0.01,,,0.01,0,weatherlink.com 1.10,2013-10-27 09:02:00,
2013-10-27 05:17:00,45.8,40.0,29.82,SW,236,10.0,14.0,80,0.02,,,0.02,0,weatherlink.com 1.10,2013-10-27 09:17:00,
2013-10-27 05:32:00,45.7,40.0,29.82,SSW,213,9.0,11.0,81,0.02,,,0.02,0,weatherlink.com 1.10,2013-10-27 09:32:00,
2013-10-27 05:47:00,45.6,41.0,29.83,WSW,238,7.0,12.0,83,0.02,,,0.03,0,weatherlink.com 1.10,2013-10-27 09:47:00,
2013-10-27 06:02:00,45.4,41.0,29.83,WSW,244,4.0,12.0,84,0.02,,,0.03,0,weatherlink.com 1.10,2013-10-27 10:02:00,
2013-10-27 06:17:00,45.2,41.0,29.82,WSW,240,6.0,14.0,85,0.01,,,0.03,0,weatherlink.com 1.10,2013-10-27 10:17:00,
2013-10-27 06:32:00,45.2,41.0,29.83,WSW,250,11.0,12.0,86,0.01,,,0.03,0,weatherlink.com 1.10,2013-10-27 10:32:00,
2013-10-27 06:47:00,44.8,41.0,29.83,WSW,238,7.0,10.0,85,0.00,,,0.03,0,weatherlink.com 1.10,2013-10-27 10:47:00,
2013-10-27 07:02:00,44.7,41.0,29.83,WSW,247,6.0,11.0,86,0.00,,,0.03,0,weatherlink.com 1.10,2013-10-27 11:02:00,
2013-10-27 07:17:00,44.6,41.0,29.84,SW,232,5.0,12.0,86,0.00,,,0.03,0,weatherlink.com 1.10,2013-10-27 11:17:00,
2013-10-27 07:32:00,44.6,41.0,29.83,SW,234,4.0,12.0,86,0.00,,,0.03,0,weatherlink.com 1.10,2013-10-27 11:32:00,
2013-10-27 07:47:00,44.8,41.0,29.84,WSW,249,5.0,12.0,86,0.00,,,0.03,21,weatherlink.com 1.10,2013-10-27 11:47:00,
2013-10-27 08:02:00,44.7,41.0,29.85,WSW,238,8.0,11.0,86,0.00,,,0.03,25,weatherlink.com 1.10,2013-10-27 12:02:00,
2013-10-27 08:17:00,44.7,41.0,29.86,WSW,253,12.0,13.0,86,0.00,,,0.03,39,weatherlink.com 1.10,2013-10-27 12:17:00,
2013-10-27 08:32:00,44.9,41.0,29.86,WSW,243,8.0,12.0,85,0.00,,,0.03,44,weatherlink.com 1.10,2013-10-27 12:32:00,
2013-10-27 08:47:00,45.4,41.0,29.86,WSW,248,6.0,12.0,85,0.00,,,0.03,51,weatherlink.com 1.10,2013-10-27 12:47:00,
2013-10-27 09:02:00,46.1,41.0,29.86,SW,236,5.0,13.0,83,0.00,,,0.03,56,weatherlink.com 1.10,2013-10-27 13:02:00,
2013-10-27 09:17:00,46.9,41.0,29.86,WSW,246,1.0,12.0,81,0.00,,,0.03,60,weatherlink.com 1.10,2013-10-27 13:17:00,
2013-10-27 09:32:00,47.5,41.0,29.86,SW,236,0.0,12.0,79,0.00,,,0.03,69,weatherlink.com 1.10,2013-10-27 13:32:00,
2013-10-27 09:47:00,48.4,41.0,29.86,WNW,287,8.0,13.0,76,0.00,,,0.03,352,weatherlink.com 1.10,2013-10-27 13:47:00,
2013-10-27 10:03:00,50.1,41.0,29.86,West,272,0.0,13.0,72,0.00,,,0.03,380,weatherlink.com 1.10,2013-10-27 14:03:00,
2013-10-27 10:18:00,51.8,41.0,29.86,WSW,252,9.0,11.0,67,0.00,,,0.03,424,weatherlink.com 1.10,2013-10-27 14:18:00,
2013-10-27 10:33:00,53.7,42.0,29.86,WSW,257,6.0,15.0,65,0.00,,,0.03,443,weatherlink.com 1.10,2013-10-27 14:33:00,
2013-10-27 10:48:00,53.9,41.0,29.86,West,278,8.0,14.0,61,0.00,,,0.03,471,weatherlink.com 1.10,2013-10-27 14:48:00,
2013-10-27 11:03:00,55.0,40.0,29.86,West,278,11.0,19.0,58,0.00,,,0.03,497,weatherlink.com 1.10,2013-10-27 15:03:00,
2013-10-27 11:18:00,55.4,39.0,29.86,West,275,9.0,18.0,55,0.00,,,0.03,524,weatherlink.com 1.10,2013-10-27 15:18:00,
2013-10-27 11:33:00,55.8,40.0,29.86,West,268,11.0,17.0,55,0.00,,,0.03,475,weatherlink.com 1.10,2013-10-27 15:33:00,
2013-10-27 11:48:00,55.0,39.0,29.86,WNW,284,7.0,16.0,55,0.00,,,0.03,206,weatherlink.com 1.10,2013-10-27 15:48:00,
2013-10-27 12:03:00,54.1,39.0,29.86,West,274,14.0,16.0,56,0.00,,,0.03,40,weatherlink.com 1.10,2013-10-27 16:03:00,
2013-10-27 12:18:00,54.3,38.0,29.85,WNW,290,9.0,17.0,54,0.00,,,0.03,51,weatherlink.com 1.10,2013-10-27 16:18:00,
2013-10-27 12:33:00,54.0,37.0,29.85,NW,319,5.0,14.0,54,0.00,,,0.03,58,weatherlink.com 1.10,2013-10-27 16:33:00,
2013-10-27 12:48:00,54.6,38.0,29.85,NW,308,5.0,18.0,53,0.00,,,0.03,65,weatherlink.com 1.10,2013-10-27 16:48:00,
2013-10-27 13:03:00,54.7,38.0,29.85,WSW,238,5.0,16.0,53,0.00,,,0.03,47,weatherlink.com 1.10,2013-10-27 17:03:00,
2013-10-27 13:18:00,54.5,37.0,29.85,NW,325,7.0,14.0,52,0.00,,,0.03,123,weatherlink.com 1.10,2013-10-27 17:18:00,
2013-10-27 13:33:00,54.5,37.0,29.85,West,279,7.0,15.0,52,0.00,,,0.03,148,weatherlink.com 1.10,2013-10-27 17:33:00,
2013-10-27 13:48:00,54.2,36.0,29.85,WNW,284,6.0,17.0,51,0.00,,,0.03,135,weatherlink.com 1.10,2013-10-27 17:48:00,
2013-10-27 14:03:00,54.4,36.0,29.85,West,263,5.0,20.0,51,0.00,,,0.03,76,weatherlink.com 1.10,2013-10-27 18:03:00,
2013-10-27 14:18:00,53.9,36.0,29.85,WNW,298,5.0,14.0,52,0.00,,,0.03,86,weatherlink.com 1.10,2013-10-27 18:18:00,
2013-10-27 14:33:00,53.7,36.0,29.85,WNW,295,14.0,16.0,52,0.00,,,0.03,72,weatherlink.com 1.10,2013-10-27 18:33:00,
2013-10-27 14:48:00,53.6,36.0,29.85,West,277,6.0,18.0,52,0.00,,,0.03,148,weatherlink.com 1.10,2013-10-27 18:48:00,
2013-10-27 15:03:00,54.1,36.0,29.86,WNW,292,4.0,22.0,50,0.00,,,0.03,77,weatherlink.com 1.10,2013-10-27 19:03:00,
2013-10-27 15:18:00,54.1,35.0,29.86,West,265,11.0,16.0,49,0.00,,,0.03,79,weatherlink.com 1.10,2013-10-27 19:18:00,
2013-10-27 15:33:00,53.8,36.0,29.87,West,273,11.0,16.0,51,0.00,,,0.03,84,weatherlink.com 1.10,2013-10-27 19:33:00,
2013-10-27 15:48:00,53.8,35.0,29.87,WNW,291,10.0,16.0,49,0.00,,,0.03,77,weatherlink.com 1.10,2013-10-27 19:48:00,
2013-10-27 16:03:00,53.9,34.0,29.87,WNW,300,11.0,16.0,47,0.00,,,0.03,49,weatherlink.com 1.10,2013-10-27 20:03:00,
2013-10-27 16:18:00,53.9,34.0,29.87,West,272,8.0,20.0,47,0.00,,,0.03,42,weatherlink.com 1.10,2013-10-27 20:18:00,
2013-10-27 16:33:00,53.5,33.0,29.88,WNW,300,8.0,21.0,46,0.00,,,0.03,44,weatherlink.com 1.10,2013-10-27 20:33:00,
2013-10-27 16:48:00,53.2,33.0,29.88,WNW,284,15.0,18.0,47,0.00,,,0.03,26,weatherlink.com 1.10,2013-10-27 20:48:00,
2013-10-27 17:03:00,52.7,33.0,29.89,WNW,290,11.0,14.0,47,0.00,,,0.03,14,weatherlink.com 1.10,2013-10-27 21:03:00,
2013-10-27 17:18:00,52.2,33.0,29.89,WNW,289,9.0,15.0,49,0.00,,,0.03,9,weatherlink.com 1.10,2013-10-27 21:18:00,
2013-10-27 17:33:00,51.8,33.0,29.90,WSW,240,11.0,15.0,49,0.00,,,0.03,9,weatherlink.com 1.10,2013-10-27 21:33:00,
2013-10-27 17:48:00,51.7,33.0,29.91,WNW,282,6.0,16.0,49,0.00,,,0.03,0,weatherlink.com 1.10,2013-10-27 21:48:00,
2013-10-27 18:03:00,51.3,33.0,29.92,West,280,6.0,15.0,50,0.00,,,0.03,0,weatherlink.com 1.10,2013-10-27 22:03:00,
2013-10-27 18:18:00,51.0,32.0,29.93,West,267,14.0,19.0,48,0.00,,,0.03,0,weatherlink.com 1.10,2013-10-27 22:18:00,
2013-10-27 18:33:00,50.7,32.0,29.94,West,278,12.0,20.0,49,0.00,,,0.03,0,weatherlink.com 1.10,2013-10-27 22:33:00,
2013-10-27 18:48:00,50.4,32.0,29.95,West,273,11.0,16.0,50,0.00,,,0.03,0,weatherlink.com 1.10,2013-10-27 22:48:00,
2013-10-27 19:03:00,50.0,32.0,29.96,WNW,287,7.0,15.0,50,0.00,,,0.03,0,weatherlink.com 1.10,2013-10-27 23:03:00,
2013-10-27 19:19:00,49.6,32.0,29.96,West,279,6.0,13.0,52,0.00,,,0.03,0,weatherlink.com 1.10,2013-10-27 23:19:00,
2013-10-27 19:34:00,49.2,32.0,29.98,West,275,8.0,14.0,52,0.00,,,0.03,0,weatherlink.com 1.10,2013-10-27 23:34:00,
2013-10-27 19:49:00,49.0,32.0,29.97,WNW,283,7.0,13.0,53,0.00,,,0.03,0,weatherlink.com 1.10,2013-10-27 23:49:00,
2013-10-27 20:04:00,48.7,33.0,29.98,West,279,4.0,12.0,54,0.00,,,0.03,0,weatherlink.com 1.10,2013-10-28 00:04:00,
2013-10-27 20:19:00,48.6,32.0,29.98,WNW,286,8.0,17.0,54,0.00,,,0.03,0,weatherlink.com 1.10,2013-10-28 00:19:00,
2013-10-27 20:34:00,48.4,33.0,29.99,WNW,288,4.0,9.0,56,0.00,,,0.03,0,weatherlink.com 1.10,2013-10-28 00:34:00,
2013-10-27 20:49:00,47.8,33.0,30.00,West,265,0.0,10.0,57,0.00,,,0.03,0,weatherlink.com 1.10,2013-10-28 00:49:00,
2013-10-27 21:04:00,47.2,33.0,30.00,West,277,6.0,11.0,58,0.00,,,0.03,0,weatherlink.com 1.10,2013-10-28 01:04:00,
2013-10-27 21:19:00,46.8,33.0,30.01,West,277,4.0,11.0,60,0.00,,,0.03,0,weatherlink.com 1.10,2013-10-28 01:19:00,
2013-10-27 21:34:00,46.7,33.0,30.02,West,275,3.0,9.0,60,0.00,,,0.03,0,weatherlink.com 1.10,2013-10-28 01:34:00,
2013-10-27 21:49:00,46.4,33.0,30.01,West,281,6.0,11.0,60,0.00,,,0.03,0,weatherlink.com 1.10,2013-10-28 01:49:00,
2013-10-27 22:04:00,46.4,33.0,30.03,West,278,3.0,11.0,60,0.00,,,0.03,0,weatherlink.com 1.10,2013-10-28 02:04:00,
2013-10-27 22:19:00,46.1,33.0,30.03,West,273,4.0,13.0,61,0.00,,,0.03,0,weatherlink.com 1.10,2013-10-28 02:19:00,
2013-10-27 22:34:00,46.2,33.0,30.04,West,281,10.0,15.0,60,0.00,,,0.03,0,weatherlink.com 1.10,2013-10-28 02:34:00,
2013-10-27 22:49:00,46.0,33.0,30.04,WNW,285,6.0,10.0,60,0.00,,,0.03,0,weatherlink.com 1.10,2013-10-28 02:49:00,
2013-10-27 23:04:00,45.6,33.0,30.04,West,280,10.0,10.0,62,0.00,,,0.03,0,weatherlink.com 1.10,2013-10-28 03:04:00,
2013-10-27 23:19:00,45.2,33.0,30.04,West,261,6.0,10.0,62,0.00,,,0.03,0,weatherlink.com 1.10,2013-10-28 03:19:00,
2013-10-27 23:34:00,45.0,33.0,30.05,West,280,6.0,10.0,63,0.00,,,0.03,0,weatherlink.com 1.10,2013-10-28 03:34:00,
2013-10-27 23:49:00,44.7,33.0,30.05,West,270,6.0,10.0,64,0.00,,,0.03,0,weatherlink.com 1.10,2013-10-28 03:49:00,